GW4823 Weather Reports


Display with metric or nautical units.
time (UTC)temp
F
wind
direction
speed
MPH
gust
MPH
rain 1hr
in
rain 24hr
in
rain mn
in
humidity
%
barometer
mb
20260506201541 63 195 2.0 5.0 0.00 0.18 0.18 90 1007.0
20260506201017 63 168 1.0 5.0 0.00 0.18 0.18 90 1007.0
20260506200515 63 232 2.0 7.0 0.00 0.18 0.18 91 1007.0
20260506200033 63 211 2.0 9.0 0.00 0.18 0.18 90 1007.1
20260506195515 63 192 3.0 9.0 0.00 0.18 0.18 91 1007.0
20260506195018 63 186 0.0 10.0 0.00 0.18 0.18 92 1007.2
20260506194534 63 213 1.0 10.0 0.00 0.18 0.18 91 1007.2
20260506194018 62 132 1.0 8.0 0.00 0.18 0.18 92 1007.2
20260506193515 62 196 1.0 9.0 0.00 0.18 0.18 92 1007.3
20260506193035 62 234 3.0 9.0 0.00 0.18 0.18 91 1007.3
20260506192519 62 0 1.0 6.0 0.00 0.18 0.18 92 1007.4
20260506192016 62 200 2.0 5.0 0.00 0.18 0.18 92 1007.5
20260506191532 62 189 0.0 10.0 0.00 0.18 0.18 92 1007.4
20260506191016 62 138 3.0 10.0 0.00 0.18 0.18 92 1007.5
20260506190516 62 256 4.0 10.0 0.00 0.18 0.18 92 1007.5
20260506190033 62 198 3.0 7.0 0.00 0.18 0.18 92 1007.5
20260506185517 62 0 1.0 5.0 0.00 0.18 0.18 92 1007.5
20260506185014 61 213 2.0 7.0 0.00 0.18 0.18 92 1007.6
20260506184531 61 302 3.0 7.0 0.00 0.18 0.18 92 1007.7
20260506184016 61 232 2.0 7.0 0.00 0.18 0.18 92 1007.8
20260506183515 61 226 3.0 7.0 0.00 0.18 0.18 92 1007.9
20260506183032 61 226 2.0 7.0 0.00 0.18 0.18 91 1007.9
20260506182516 61 267 2.0 7.0 0.00 0.18 0.18 91 1007.9
20260506182018 61 182 2.0 6.0 0.00 0.18 0.18 91 1007.9
20260506181530 61 191 3.0 6.0 0.00 0.18 0.18 91 1007.9
20260506181014 61 214 1.0 9.0 0.00 0.18 0.18 92 1008.0
20260506180518 61 263 4.0 9.0 0.00 0.18 0.18 91 1008.0
20260506180034 61 246 2.0 8.0 0.00 0.18 0.18 92 1008.1
20260506175516 61 257 3.0 8.0 0.00 0.18 0.18 91 1008.1
20260506175015 61 257 2.0 8.0 0.00 0.18 0.18 92 1008.1
20260506174529 61 250 3.0 8.0 0.00 0.18 0.18 92 1008.1
20260506174016 61 171 3.0 8.0 0.00 0.18 0.18 92 1008.1
20260506173516 61 236 3.0 13.0 0.00 0.18 0.18 92 1008.0
20260506173037 61 207 3.0 13.0 0.01 0.18 0.18 92 1008.1
20260506172515 61 169 3.0 13.0 0.01 0.18 0.18 92 1008.0
20260506172017 61 302 4.0 13.0 0.01 0.18 0.18 92 1008.1
20260506171543 61 286 4.0 8.0 0.01 0.18 0.18 92 1008.2
20260506171017 61 225 4.0 8.0 0.02 0.18 0.18 92 1008.3
20260506170516 61 302 1.0 10.0 0.02 0.18 0.18 92 1008.4
20260506170030 61 212 3.0 10.0 0.02 0.18 0.18 92 1008.4
20260506165519 61 249 2.0 15.0 0.03 0.18 0.18 92 1008.4
20260506165020 61 214 4.0 15.0 0.03 0.18 0.18 92 1008.3
20260506164530 61 212 4.0 15.0 0.04 0.18 0.18 92 1008.3
20260506164021 61 172 6.0 15.0 0.05 0.18 0.18 92 1008.3
20260506163520 61 252 4.0 14.0 0.05 0.18 0.18 92 1008.3
20260506163039 61 205 6.0 14.0 0.05 0.17 0.17 92 1008.4
20260506162519 61 184 6.0 14.0 0.06 0.17 0.17 93 1008.1
20260506162015 61 221 5.0 10.0 0.07 0.17 0.17 92 1007.9
20260506161533 61 159 5.0 10.0 0.08 0.17 0.17 92 1007.8
20260506161015 61 159 4.0 10.0 0.08 0.16 0.16 92 1008.2
20260506160518 61 128 3.0 11.0 0.09 0.16 0.16 92 1008.6
20260506160034 61 180 4.0 11.0 0.09 0.16 0.16 92 1008.9
20260506155517 61 180 2.0 10.0 0.09 0.15 0.15 92 1009.1
20260506155014 61 181 3.0 10.0 0.09 0.15 0.15 92 1009.2
20260506154537 61 161 2.0 7.0 0.08 0.14 0.14 91 1009.4
20260506154022 61 165 2.0 10.0 0.07 0.13 0.13 91 1009.2
20260506153516 61 181 4.0 10.0 0.08 0.13 0.13 91 1009.2
20260506153029 61 211 3.0 11.0 0.08 0.12 0.12 91 1009.5
20260506152518 61 193 4.0 11.0 0.08 0.11 0.11 90 1009.5
20260506152015 61 174 2.0 14.0 0.08 0.10 0.10 90 1009.5
20260506151532 61 152 6.0 14.0 0.07 0.09 0.09 90 1009.5
20260506151017 62 138 3.0 15.0 0.07 0.08 0.08 90 1009.5
20260506150515 62 0 4.0 15.0 0.06 0.07 0.07 90 1009.6
20260506150033 62 194 3.0 8.0 0.07 0.07 0.07 90 1009.4
20260506145515 62 216 4.0 8.0 0.06 0.06 0.06 90 1009.4
20260506145012 62 163 2.0 7.0 0.06 0.06 0.06 90 1009.4
20260506144529 62 225 2.0 8.0 0.06 0.06 0.06 90 1009.3
20260506144014 62 198 2.0 9.0 0.06 0.06 0.06 89 1009.2
20260506143516 62 180 4.0 9.0 0.05 0.05 0.05 88 1009.2
20260506143030 62 184 4.0 12.0 0.04 0.04 0.04 87 1009.3
20260506142511 63 171 3.0 12.0 0.03 0.03 0.03 86 1009.2
20260506142013 63 195 4.0 8.0 0.02 0.02 0.02 85 1009.2
20260506141531 63 137 1.0 12.0 0.02 0.02 0.02 85 1009.3
20260506141012 64 0 4.0 12.0 0.01 0.01 0.01 84 1009.3
20260506140518 64 163 5.0 9.0 0.01 0.01 0.01 83 1009.3
20260506140038 64 0 3.0 12.0 0.00 0.00 0.00 82 1009.2
20260506135513 65 219 4.0 13.0 0.00 0.00 0.00 83 1009.1
20260506135013 65 292 6.0 13.0 0.00 0.00 0.00 82 1009.1
20260506134528 65 213 7.0 13.0 0.00 0.00 0.00 81 1009.1
20260506134017 65 238 5.0 11.0 0.00 0.00 0.00 81 1009.0
20260506133511 65 205 5.0 11.0 0.00 0.00 0.00 80 1009.3
20260506133029 65 198 3.0 11.0 0.00 0.00 0.00 81 1009.4
20260506132510 65 153 4.0 11.0 0.00 0.00 0.00 80 1009.5
20260506132015 65 184 2.0 10.0 0.00 0.00 0.00 80 1009.4
20260506131533 65 242 2.0 10.0 0.00 0.00 0.00 80 1009.4
20260506131011 65 159 4.0 14.0 0.00 0.00 0.00 79 1009.5
20260506130518 65 173 1.0 14.0 0.00 0.00 0.00 79 1009.5
20260506130032 65 187 5.0 13.0 0.00 0.00 0.00 79 1009.5
20260506125512 65 244 3.0 10.0 0.00 0.00 0.00 79 1009.7
20260506125012 65 199 5.0 10.0 0.00 0.00 0.00 78 1009.7
20260506124531 66 202 4.0 10.0 0.00 0.00 0.00 77 1009.7
20260506124010 66 182 3.0 14.0 0.00 0.00 0.00 77 1009.6
20260506123512 66 222 6.0 14.0 0.00 0.00 0.00 76 1009.6
20260506123030 66 253 6.0 13.0 0.00 0.00 0.00 76 1009.5
20260506122511 66 178 5.0 13.0 0.00 0.00 0.00 76 1009.5
20260506122011 66 203 3.0 7.0 0.00 0.00 0.00 76 1009.4
20260506121532 66 264 2.0 10.0 0.00 0.00 0.00 77 1009.3
20260506121013 66 153 3.0 10.0 0.00 0.00 0.00 76 1009.3
20260506120514 66 184 2.0 10.0 0.00 0.00 0.00 76 1009.3
20260506120033 66 199 5.0 10.0 0.00 0.00 0.00 75 1009.3
20260506115514 66 178 5.0 9.0 0.00 0.00 0.00 76 1009.2
20260506115013 66 199 3.0 9.0 0.00 0.00 0.00 76 1009.3
20260506114529 66 142 2.0 8.0 0.00 0.00 0.00 76 1009.3
20260506114011 66 176 4.0 9.0 0.00 0.00 0.00 75 1009.3
20260506113511 66 190 3.0 10.0 0.00 0.00 0.00 76 1009.2
20260506113029 66 225 4.0 10.0 0.00 0.00 0.00 75 1009.3
20260506112512 66 161 5.0 10.0 0.00 0.00 0.00 75 1009.1
20260506112012 66 186 3.0 9.0 0.00 0.00 0.00 76 1009.3
20260506111538 66 159 5.0 11.0 0.00 0.00 0.00 75 1009.2
20260506111014 66 222 6.0 11.0 0.00 0.00 0.00 75 1009.2
20260506110514 66 234 3.0 11.0 0.00 0.00 0.00 76 1009.4
20260506110030 66 195 4.0 13.0 0.00 0.00 0.00 75 1009.2
20260506105514 66 198 4.0 15.0 0.00 0.00 0.00 75 1009.0
20260506105015 66 206 6.0 15.0 0.00 0.00 0.00 75 1009.0
20260506104533 66 179 4.0 10.0 0.00 0.00 0.00 75 1009.1
20260506104014 65 193 4.0 10.0 0.00 0.00 0.00 75 1009.1
20260506103514 66 217 4.0 10.0 0.00 0.00 0.00 76 1008.9
20260506103032 65 180 6.0 10.0 0.00 0.00 0.00 76 1008.8
20260506102517 65 161 4.0 10.0 0.00 0.00 0.00 76 1008.7
20260506102016 65 155 3.0 10.0 0.00 0.00 0.00 76 1008.8
20260506101535 65 168 4.0 8.0 0.00 0.00 0.00 76 1008.7
20260506101015 65 148 1.0 8.0 0.00 0.00 0.00 76 1008.7
20260506100515 65 180 3.0 8.0 0.00 0.00 0.00 76 1008.8
20260506100033 65 171 1.0 6.0 0.00 0.00 0.00 76 1008.7
20260506095517 65 149 2.0 5.0 0.00 0.00 0.00 75 1008.8
20260506095014 66 156 1.0 6.0 0.00 0.00 0.00 75 1008.9
20260506094532 66 150 1.0 6.0 0.00 0.00 0.00 75 1008.9
20260506094013 66 156 2.0 8.0 0.00 0.00 0.00 75 1008.8
20260506093517 66 131 1.0 8.0 0.00 0.00 0.00 75 1008.8
20260506093052 66 175 1.0 8.0 0.00 0.00 0.00 75 1008.8
20260506092512 66 152 3.0 8.0 0.00 0.00 0.00 75 1008.8
20260506092014 66 136 3.0 8.0 0.00 0.00 0.00 74 1008.8
20260506091533 66 161 3.0 11.0 0.00 0.00 0.00 74 1008.9
20260506091011 66 199 2.0 11.0 0.00 0.00 0.00 73 1008.8
20260506090515 66 218 5.0 11.0 0.00 0.00 0.00 73 1008.9
20260506090036 66 169 3.0 6.0 0.00 0.00 0.00 73 1008.8
20260506085516 67 132 3.0 6.0 0.00 0.01 0.00 73 1008.9
20260506085014 67 142 2.0 7.0 0.00 0.01 0.00 73 1008.9
20260506084530 67 178 3.0 10.0 0.00 0.01 0.00 73 1009.0
20260506084017 67 203 3.0 10.0 0.00 0.01 0.00 72 1008.9
20260506083514 67 219 3.0 12.0 0.00 0.01 0.00 72 1008.9
20260506083034 67 202 3.0 12.0 0.00 0.01 0.00 72 1008.9
20260506082520 67 196 4.0 11.0 0.00 0.01 0.00 72 1009.0
20260506082013 67 127 4.0 11.0 0.00 0.01 0.00 72 1008.9
20260506081532 67 171 2.0 8.0 0.00 0.01 0.00 72 1008.8
20260506081016 67 143 1.0 11.0 0.00 0.01 0.00 71 1008.9
20260506080515 67 160 5.0 11.0 0.00 0.01 0.00 71 1008.9
20260506073519 67 189 2.0 7.0 0.00 0.01 0.00 70 1009.0
20260506073032 67 183 4.0 7.0 0.00 0.01 0.00 70 1009.0
20260506072517 67 202 2.0 7.0 0.00 0.01 0.00 69 1009.1
20260506072018 67 198 2.0 7.0 0.00 0.01 0.00 69 1009.0
20260506071534 67 192 1.0 8.0 0.00 0.01 0.00 69 1009.0
20260506071010 67 185 4.0 8.0 0.00 0.01 0.00 68 1009.1
20260506070512 67 160 1.0 7.0 0.00 0.01 0.00 68 1009.2
20260506062511 68 0 1.0 12.0 0.00 0.01 0.00 65 1009.5
20260506062014 68 163 6.0 12.0 0.00 0.01 0.00 65 1009.6
20260506061530 68 220 2.0 11.0 0.00 0.01 0.00 65 1009.6
20260506061011 68 136 0.0 8.0 0.00 0.01 0.00 65 1009.5
20260506060513 68 207 2.0 8.0 0.00 0.01 0.00 65 1009.5
20260506051012 69 173 1.0 5.0 0.00 0.01 0.00 62 1009.9
20260506050511 69 217 1.0 11.0 0.00 0.01 0.00 61 1009.9
20260506045016 69 0 1.0 7.0 0.00 0.01 0.00 61 1010.0
20260506044533 69 192 3.0 7.0 0.00 0.01 0.00 61 1010.0
20260506044013 69 194 1.0 7.0 0.00 0.01 0.00 61 1010.1
20260506043513 69 155 2.0 9.0 0.00 0.01 0.00 61 1010.0
20260506043030 69 201 3.0 9.0 0.00 0.01 0.00 61 1010.0
20260506042513 68 163 1.0 6.0 0.00 0.01 0.00 61 1010.0
20260506042048 69 138 2.0 6.0 0.00 0.01 0.00 61 1010.1
20260506041530 69 182 2.0 6.0 0.00 0.01 0.00 60 1010.1
20260506041011 69 185 2.0 9.0 0.00 0.01 0.00 60 1010.0
20260506040515 69 0 4.0 9.0 0.00 0.01 0.00 60 1009.9
20260506040030 69 157 1.0 7.0 0.00 0.01 0.00 60 1010.0
20260506035515 69 0 2.0 7.0 0.00 0.01 0.01 60 1010.0
20260506035012 69 0 1.0 6.0 0.00 0.01 0.01 59 1010.0
20260506034532 69 196 2.0 6.0 0.00 0.01 0.01 59 1010.0
20260506034013 69 349 0.0 4.0 0.00 0.01 0.01 58 1010.0
20260506033515 69 232 2.0 5.0 0.00 0.01 0.01 58 1010.0
20260506033033 69 0 2.0 5.0 0.00 0.01 0.01 58 1010.0
20260506032513 70 226 1.0 6.0 0.00 0.01 0.01 58 1009.9
20260506032015 70 192 1.0 6.0 0.00 0.01 0.01 57 1009.9
20260506031530 70 170 1.0 9.0 0.00 0.01 0.01 57 1009.9
20260506031012 70 223 2.0 9.0 0.00 0.01 0.01 56 1010.0
20260506030513 70 103 2.0 6.0 0.00 0.01 0.01 56 1009.9
20260506030030 70 74 1.0 7.0 0.00 0.01 0.01 55 1010.0
20260506025513 70 218 2.0 7.0 0.00 0.01 0.01 56 1010.0
20260506025013 70 163 2.0 5.0 0.00 0.01 0.01 55 1009.9
20260506024529 71 173 2.0 5.0 0.00 0.01 0.01 54 1009.9
20260506024014 71 0 0.0 5.0 0.00 0.01 0.01 54 1009.9
20260506023513 71 186 1.0 6.0 0.00 0.01 0.01 54 1010.0
20260506023032 71 352 2.0 8.0 0.00 0.01 0.01 53 1010.0
20260506022515 72 166 2.0 8.0 0.00 0.01 0.01 53 1009.9
20260506022013 72 227 3.0 8.0 0.00 0.01 0.01 52 1010.0
20260506021530 72 129 2.0 6.0 0.00 0.01 0.01 52 1010.0
20260506021015 72 167 2.0 6.0 0.00 0.01 0.01 52 1010.1
20260506020514 72 0 0.0 11.0 0.00 0.01 0.01 51 1009.9
20260506020100 73 212 3.0 11.0 0.00 0.01 0.01 51 1009.9
20260506015512 73 190 4.0 11.0 0.00 0.01 0.01 51 1009.8
20260506015016 73 135 3.0 9.0 0.00 0.01 0.01 50 1009.7
20260506014531 73 203 2.0 6.0 0.00 0.01 0.01 49 1009.7
20260506014013 73 0 2.0 10.0 0.00 0.01 0.01 49 1009.6
20260506013520 74 188 3.0 11.0 0.00 0.01 0.01 48 1009.5
20260506013032 74 211 5.0 13.0 0.00 0.01 0.01 48 1009.5
20260506012515 74 207 6.0 13.0 0.00 0.01 0.01 48 1009.4
20260506012017 74 192 4.0 13.0 0.00 0.01 0.01 48 1009.4
20260506011534 74 191 4.0 13.0 0.00 0.01 0.01 47 1009.3
20260506011015 74 215 5.0 11.0 0.00 0.01 0.01 47 1009.2
20260506010515 74 202 1.0 11.0 0.00 0.01 0.01 46 1009.2
20260506010031 74 189 3.0 11.0 0.00 0.01 0.01 46 1009.1
20260506005517 75 166 2.0 11.0 0.00 0.01 0.01 46 1008.9
20260506005013 75 189 3.0 11.0 0.00 0.01 0.01 46 1008.9
20260506004539 75 188 3.0 10.0 0.00 0.01 0.01 45 1008.8
20260506004012 75 227 4.0 12.0 0.00 0.01 0.01 45 1008.8
20260506003514 75 202 4.0 12.0 0.00 0.01 0.01 45 1008.8
20260506003032 75 205 2.0 7.0 0.00 0.01 0.01 46 1008.7
20260506002514 76 169 1.0 8.0 0.00 0.01 0.01 45 1008.7
20260506002015 76 169 2.0 8.0 0.00 0.01 0.01 44 1008.7
20260506001535 76 180 3.0 13.0 0.00 0.01 0.01 43 1008.5
20260506001015 76 202 4.0 13.0 0.00 0.01 0.01 43 1008.5
20260506000515 76 157 4.0 10.0 0.00 0.01 0.01 43 1008.5
20260506000050 76 221 3.0 9.0 0.00 0.01 0.01 43 1008.5
20260505235516 76 161 3.0 9.0 0.00 0.01 0.01 43 1008.4
20260505235012 76 215 2.0 11.0 0.00 0.01 0.01 42 1008.5
20260505234532 77 210 4.0 11.0 0.00 0.01 0.01 42 1008.4
20260505234012 77 270 4.0 14.0 0.00 0.01 0.01 42 1008.3
20260505233515 77 254 4.0 14.0 0.00 0.01 0.01 42 1008.2
20260505233032 77 242 5.0 14.0 0.00 0.01 0.01 41 1008.2
20260505232514 77 252 4.0 14.0 0.00 0.01 0.01 42 1008.4
20260505232015 77 259 5.0 12.0 0.00 0.01 0.01 42 1008.3
20260505231532 77 181 5.0 13.0 0.00 0.01 0.01 42 1008.2
20260505231026 78 211 6.0 15.0 0.00 0.01 0.01 42 1008.3
20260505230513 78 221 5.0 18.0 0.00 0.01 0.01 42 1008.3
20260505230042 78 292 7.0 18.0 0.00 0.01 0.01 42 1008.2
20260505225515 78 124 7.0 14.0 0.00 0.01 0.01 42 1008.2
20260505225018 78 192 3.0 15.0 0.00 0.01 0.01 41 1008.2
20260505224542 78 153 5.0 17.0 0.00 0.01 0.01 41 1008.2
20260505224012 79 244 4.0 21.0 0.00 0.01 0.01 40 1008.1
20260505223512 79 193 7.0 21.0 0.00 0.01 0.01 40 1008.2
20260505223037 79 196 6.0 16.0 0.00 0.01 0.01 39 1008.2
20260505222515 80 220 7.0 19.0 0.00 0.01 0.01 38 1008.1
20260505222015 80 234 6.0 19.0 0.00 0.01 0.01 38 1008.0
20260505221529 80 192 10.0 23.0 0.00 0.01 0.01 37 1008.2
20260505221015 80 215 8.0 23.0 0.00 0.01 0.01 38 1008.2
20260505220513 80 290 8.0 20.0 0.00 0.01 0.01 38 1008.1
20260505220033 80 237 4.0 20.0 0.00 0.01 0.01 38 1008.1
20260505215516 80 176 8.0 20.0 0.00 0.01 0.01 38 1008.1
20260505215013 80 182 8.0 18.0 0.00 0.01 0.01 38 1007.9
20260505214530 81 209 6.0 20.0 0.00 0.01 0.01 38 1008.0
20260505214014 80 243 4.0 21.0 0.00 0.01 0.01 39 1008.2
20260505213515 80 168 9.0 21.0 0.00 0.01 0.01 38 1008.1
20260505213030 80 221 8.0 20.0 0.00 0.01 0.01 40 1008.2
20260505212513 80 208 11.0 20.0 0.00 0.01 0.01 39 1008.0
20260505212018 80 248 8.0 21.0 0.00 0.01 0.01 39 1007.9
20260505211548 80 232 6.0 21.0 0.00 0.01 0.01 40 1007.9
20260505211012 80 181 7.0 17.0 0.00 0.01 0.01 41 1008.1
20260505210511 80 178 6.0 18.0 0.00 0.01 0.01 40 1007.8
20260505210029 80 159 7.0 18.0 0.00 0.01 0.01 40 1007.7
20260505205517 80 155 5.0 15.0 0.00 0.01 0.01 41 1007.8
20260505205015 80 254 5.0 16.0 0.00 0.01 0.01 40 1007.7
20260505204539 80 232 6.0 19.0 0.00 0.01 0.01 39 1007.9
20260505204017 80 195 9.0 19.0 0.00 0.01 0.01 39 1007.9
20260505203513 81 164 7.0 22.0 0.00 0.01 0.01 39 1008.0
20260505203030 81 202 8.0 22.0 0.00 0.01 0.01 39 1007.9
20260505202515 81 198 7.0 21.0 0.00 0.01 0.01 38 1008.2
20260505202013 81 199 8.0 21.0 0.00 0.01 0.01 37 1008.2